GSAT0216 (GALILEO 20)

Last updated on Nov. 13, 2019, 4:20 a.m. UTC

1 43056U 17079B   19316.79405981 -.00000019  00000-0  00000+0 0  9995
2 43056  56.4446 287.7653 0005657 268.5397  91.3679  1.70473747 11917
UTC
Height (km)
Latitude
Longitude
Inclination
Orbital Period
UTC large
Height (km)
Speed (km/s)
/
Latitude / Longitude
Inclination (degrees)
Orbital Period (minutes)
Azimuth
Elevation
Range (km)
Doppler Factor
iOS Compass Heading
iOS Angle

Next 30 passes for location: Hong Kong

Rise time Rise Azimuth (degrees) Set time Set Azimuth (degrees) Duration Max altitude (degrees)

No matching passes for this satellites